Time,TemperatureF,DewpointF,PressureIn,WindDirection,WindDirectionDegrees,WindSpeedMPH,WindSpeedGustMPH,Humidity,HourlyPrecipIn,Conditions,Clouds,dailyrainin,SoftwareType,DateUTC
2013-05-10 00:04:00,58.0,55.0,30.09,SSW,202,0.0,1.2,89,0.00,,,0.00,Rainwise IP-100,2013-05-10 07:04:00,
2013-05-10 00:09:00,57.8,55.0,30.09,SSW,202,0.0,0.0,89,0.00,,,0.00,Rainwise IP-100,2013-05-10 07:09:00,
2013-05-10 00:14:00,57.6,54.5,30.09,SSW,202,0.0,0.0,89,0.00,,,0.00,Rainwise IP-100,2013-05-10 07:14:00,
2013-05-10 00:19:00,57.5,54.5,30.09,SSW,202,0.0,0.0,90,0.00,,,0.00,Rainwise IP-100,2013-05-10 07:19:00,
2013-05-10 00:24:00,57.5,54.5,30.09,SSW,202,0.0,0.0,90,0.00,,,0.00,Rainwise IP-100,2013-05-10 07:24:00,
2013-05-10 00:29:00,57.4,54.5,30.09,SSW,202,0.0,0.0,90,0.00,,,0.00,Rainwise IP-100,2013-05-10 07:29:00,
2013-05-10 00:34:00,57.3,54.5,30.09,SSW,202,0.0,0.0,90,0.00,,,0.00,Rainwise IP-100,2013-05-10 07:34:00,
2013-05-10 00:39:00,57.2,54.0,30.09,SSW,202,0.0,1.2,90,0.00,,,0.00,Rainwise IP-100,2013-05-10 07:39:00,
2013-05-10 00:44:00,57.1,54.0,30.09,SSW,202,0.0,1.4,90,0.00,,,0.00,Rainwise IP-100,2013-05-10 07:44:00,
2013-05-10 00:49:00,56.9,54.0,30.09,SSW,202,0.0,0.0,90,0.00,,,0.00,Rainwise IP-100,2013-05-10 07:49:00,
2013-05-10 00:54:00,56.8,54.0,30.10,SSW,202,0.0,0.0,90,0.00,,,0.00,Rainwise IP-100,2013-05-10 07:54:00,
2013-05-10 00:59:00,57.0,54.5,30.09,SSW,202,0.0,0.0,91,0.00,,,0.00,Rainwise IP-100,2013-05-10 07:59:00,
2013-05-10 01:04:00,57.1,54.5,30.09,SSW,202,0.0,0.0,91,0.00,,,0.00,Rainwise IP-100,2013-05-10 08:04:00,
2013-05-10 01:09:00,56.9,54.5,30.09,SSW,202,0.0,0.0,91,0.00,,,0.00,Rainwise IP-100,2013-05-10 08:09:00,
2013-05-10 01:14:00,56.8,54.5,30.08,SSW,202,0.0,0.0,91,0.00,,,0.00,Rainwise IP-100,2013-05-10 08:14:00,
2013-05-10 01:19:00,56.8,54.5,30.09,SSW,202,0.0,0.0,91,0.00,,,0.00,Rainwise IP-100,2013-05-10 08:19:00,
2013-05-10 01:24:00,56.6,54.0,30.08,SSW,202,0.0,0.0,92,0.00,,,0.00,Rainwise IP-100,2013-05-10 08:24:00,
2013-05-10 01:29:00,56.6,54.0,30.08,SSW,202,0.0,0.0,92,0.00,,,0.00,Rainwise IP-100,2013-05-10 08:29:00,
2013-05-10 01:34:00,56.6,54.0,30.09,SSW,202,0.0,0.0,92,0.00,,,0.00,Rainwise IP-100,2013-05-10 08:34:00,
2013-05-10 01:39:00,56.5,54.0,30.09,SSW,202,0.0,0.0,92,0.00,,,0.00,Rainwise IP-100,2013-05-10 08:39:00,
2013-05-10 01:44:00,56.5,54.0,30.08,SSW,202,1.4,1.6,92,0.00,,,0.00,Rainwise IP-100,2013-05-10 08:44:00,
2013-05-10 01:49:00,56.4,54.0,30.08,SSW,202,0.0,1.9,92,0.00,,,0.00,Rainwise IP-100,2013-05-10 08:49:00,
2013-05-10 01:54:00,56.3,54.0,30.08,SSW,202,0.0,0.0,92,0.00,,,0.00,Rainwise IP-100,2013-05-10 08:54:00,
2013-05-10 01:59:00,56.1,53.5,30.08,SSW,202,0.0,0.0,92,0.00,,,0.00,Rainwise IP-100,2013-05-10 08:59:00,
2013-05-10 02:04:00,56.0,53.5,30.08,SSW,202,0.0,0.0,92,0.00,,,0.00,Rainwise IP-100,2013-05-10 09:04:00,
2013-05-10 02:09:00,55.9,53.5,30.08,SSW,202,0.0,0.0,92,0.00,,,0.00,Rainwise IP-100,2013-05-10 09:09:00,
2013-05-10 02:14:00,55.8,53.5,30.08,SSW,202,0.0,0.0,92,0.00,,,0.00,Rainwise IP-100,2013-05-10 09:14:00,
2013-05-10 02:19:00,55.6,54.0,30.08,SSW,202,0.0,0.0,93,0.00,,,0.00,Rainwise IP-100,2013-05-10 09:19:00,
2013-05-10 02:24:00,55.4,53.5,30.08,SSW,202,0.0,0.0,93,0.00,,,0.00,Rainwise IP-100,2013-05-10 09:24:00,
2013-05-10 02:29:00,55.3,53.5,30.08,SSW,202,0.0,0.0,93,0.00,,,0.00,Rainwise IP-100,2013-05-10 09:29:00,
2013-05-10 02:34:00,55.1,53.5,30.08,SSW,202,0.0,0.0,93,0.00,,,0.00,Rainwise IP-100,2013-05-10 09:34:00,
2013-05-10 02:39:00,55.0,53.5,30.08,SSW,202,0.0,0.0,93,0.00,,,0.00,Rainwise IP-100,2013-05-10 09:39:00,
2013-05-10 02:44:00,55.0,53.5,30.08,SSW,202,0.0,0.0,93,0.00,,,0.00,Rainwise IP-100,2013-05-10 09:44:00,
2013-05-10 02:49:00,55.1,53.5,30.08,WNW,292,1.4,2.3,94,0.00,,,0.00,Rainwise IP-100,2013-05-10 09:49:00,
2013-05-10 02:54:00,55.2,53.5,30.08,WNW,292,0.0,2.3,94,0.00,,,0.00,Rainwise IP-100,2013-05-10 09:54:00,
2013-05-10 02:59:00,55.1,53.5,30.09,WNW,292,0.0,0.0,94,0.00,,,0.00,Rainwise IP-100,2013-05-10 09:59:00,
2013-05-10 03:04:00,54.9,53.5,30.09,WNW,292,0.0,1.2,94,0.00,,,0.00,Rainwise IP-100,2013-05-10 10:04:00,
2013-05-10 03:09:00,55.0,53.5,30.09,WNW,292,0.0,0.0,94,0.00,,,0.00,Rainwise IP-100,2013-05-10 10:09:00,
2013-05-10 03:14:00,55.1,53.5,30.09,WNW,292,1.2,1.6,94,0.00,,,0.00,Rainwise IP-100,2013-05-10 10:14:00,
2013-05-10 03:19:00,55.2,53.5,30.08,WNW,292,0.0,2.3,94,0.00,,,0.00,Rainwise IP-100,2013-05-10 10:19:00,
2013-05-10 03:24:00,55.4,53.5,30.09,WNW,292,1.6,1.6,94,0.00,,,0.00,Rainwise IP-100,2013-05-10 10:24:00,
2013-05-10 03:29:00,55.4,53.5,30.09,WNW,292,0.0,1.6,94,0.00,,,0.00,Rainwise IP-100,2013-05-10 10:29:00,
2013-05-10 03:34:00,55.2,53.5,30.09,WNW,292,0.0,0.0,94,0.00,,,0.00,Rainwise IP-100,2013-05-10 10:34:00,
2013-05-10 03:39:00,55.0,53.5,30.08,WNW,292,0.0,0.0,94,0.00,,,0.00,Rainwise IP-100,2013-05-10 10:39:00,
2013-05-10 03:44:00,54.8,54.0,30.08,WNW,292,0.0,0.0,95,0.00,,,0.00,Rainwise IP-100,2013-05-10 10:44:00,
2013-05-10 03:49:00,54.6,53.0,30.08,WNW,292,0.0,0.0,94,0.00,,,0.00,Rainwise IP-100,2013-05-10 10:49:00,
2013-05-10 03:54:00,54.4,53.0,30.08,WNW,292,0.0,0.0,94,0.00,,,0.00,Rainwise IP-100,2013-05-10 10:54:00,
2013-05-10 03:59:00,54.3,53.5,30.08,WNW,292,1.6,1.6,95,0.00,,,0.00,Rainwise IP-100,2013-05-10 10:59:00,
2013-05-10 04:04:00,54.4,53.5,30.08,WNW,292,0.0,1.9,95,0.00,,,0.00,Rainwise IP-100,2013-05-10 11:04:00,
2013-05-10 04:09:00,54.5,53.5,30.08,WNW,292,1.2,1.2,95,0.00,,,0.00,Rainwise IP-100,2013-05-10 11:09:00,
2013-05-10 04:14:00,54.5,53.5,30.08,WNW,292,0.0,1.9,95,0.00,,,0.00,Rainwise IP-100,2013-05-10 11:14:00,
2013-05-10 04:19:00,54.8,54.0,30.09,WNW,292,0.0,1.4,95,0.00,,,0.00,Rainwise IP-100,2013-05-10 11:19:00,
2013-05-10 04:24:00,55.1,54.0,30.08,WNW,292,0.0,0.0,96,0.00,,,0.00,Rainwise IP-100,2013-05-10 11:24:00,
2013-05-10 04:29:00,55.2,54.0,30.09,WNW,292,0.0,0.0,95,0.00,,,0.00,Rainwise IP-100,2013-05-10 11:29:00,
2013-05-10 04:34:00,55.1,54.0,30.08,WNW,292,0.0,0.0,95,0.00,,,0.00,Rainwise IP-100,2013-05-10 11:34:00,
2013-05-10 04:39:00,55.2,54.0,30.09,WNW,292,1.2,1.6,95,0.00,,,0.00,Rainwise IP-100,2013-05-10 11:39:00,
2013-05-10 04:44:00,55.4,54.0,30.08,WNW,292,0.0,1.9,95,0.00,,,0.00,Rainwise IP-100,2013-05-10 11:44:00,
2013-05-10 04:49:00,55.7,54.5,30.09,WNW,292,0.0,0.0,95,0.00,,,0.00,Rainwise IP-100,2013-05-10 11:49:00,
2013-05-10 04:54:00,55.8,54.5,30.08,WNW,292,0.0,0.0,95,0.00,,,0.00,Rainwise IP-100,2013-05-10 11:54:00,
2013-05-10 04:59:00,55.9,54.5,30.08,WNW,292,0.0,1.2,95,0.00,,,0.00,Rainwise IP-100,2013-05-10 11:59:00,
2013-05-10 05:04:00,56.1,54.0,30.08,WNW,292,1.2,1.9,94,0.00,,,0.00,Rainwise IP-100,2013-05-10 12:04:00,
2013-05-10 05:09:00,56.2,54.0,30.08,WNW,292,0.0,1.6,94,0.00,,,0.00,Rainwise IP-100,2013-05-10 12:09:00,
2013-05-10 05:14:00,56.3,54.5,30.08,WNW,292,1.4,0.0,94,0.00,,,0.00,Rainwise IP-100,2013-05-10 12:14:00,
2013-05-10 05:19:00,56.2,54.0,30.08,North,360,1.2,3.5,94,0.00,,,0.00,Rainwise IP-100,2013-05-10 12:19:00,
2013-05-10 05:24:00,56.1,54.0,30.08,NNE,22,0.0,2.8,94,0.00,,,0.00,Rainwise IP-100,2013-05-10 12:24:00,
2013-05-10 05:29:00,56.1,54.0,30.08,NNE,22,0.0,3.0,94,0.00,,,0.00,Rainwise IP-100,2013-05-10 12:29:00,
2013-05-10 05:34:00,56.1,54.0,30.08,NW,315,2.1,2.8,94,0.00,,,0.00,Rainwise IP-100,2013-05-10 12:34:00,
2013-05-10 05:39:00,56.0,54.0,30.08,NW,315,2.1,2.3,94,0.00,,,0.00,Rainwise IP-100,2013-05-10 12:39:00,
2013-05-10 05:44:00,55.9,54.0,30.08,NW,315,1.4,2.6,93,0.00,,,0.00,Rainwise IP-100,2013-05-10 12:44:00,
2013-05-10 05:49:00,56.0,54.0,30.08,NW,315,1.4,2.3,93,0.00,,,0.00,Rainwise IP-100,2013-05-10 12:49:00,
2013-05-10 05:54:00,56.0,54.0,30.08,NW,315,0.0,2.1,93,0.00,,,0.00,Rainwise IP-100,2013-05-10 12:54:00,
2013-05-10 05:59:00,55.9,54.0,30.08,NW,315,0.0,0.0,93,0.00,,,0.00,Rainwise IP-100,2013-05-10 12:59:00,
2013-05-10 06:04:00,55.8,54.0,30.08,NW,315,0.0,0.0,93,0.00,,,0.00,Rainwise IP-100,2013-05-10 13:04:00,
2013-05-10 06:09:00,55.6,54.0,30.08,NW,315,0.0,1.2,93,0.00,,,0.00,Rainwise IP-100,2013-05-10 13:09:00,
2013-05-10 06:14:00,55.4,53.5,30.08,NNW,337,0.0,2.1,93,0.00,,,0.00,Rainwise IP-100,2013-05-10 13:14:00,
2013-05-10 06:19:00,55.4,53.5,30.08,NNW,337,1.2,1.4,93,0.00,,,0.00,Rainwise IP-100,2013-05-10 13:19:00,
2013-05-10 06:24:00,55.5,54.0,30.08,NNW,337,1.2,2.6,94,0.00,,,0.00,Rainwise IP-100,2013-05-10 13:24:00,
2013-05-10 06:29:00,55.7,54.0,30.09,NNW,337,0.0,2.3,94,0.00,,,0.00,Rainwise IP-100,2013-05-10 13:29:00,
2013-05-10 06:34:00,55.8,54.0,30.08,NNW,337,0.0,1.9,94,0.00,,,0.00,Rainwise IP-100,2013-05-10 13:34:00,
2013-05-10 06:39:00,56.0,54.0,30.08,NNW,337,0.0,1.6,94,0.00,,,0.00,Rainwise IP-100,2013-05-10 13:39:00,
2013-05-10 06:44:00,56.2,54.0,30.08,NNW,337,0.0,0.0,94,0.00,,,0.00,Rainwise IP-100,2013-05-10 13:44:00,
2013-05-10 06:49:00,56.4,54.5,30.08,North,360,1.4,2.3,93,0.00,,,0.00,Rainwise IP-100,2013-05-10 13:49:00,
2013-05-10 06:54:00,56.9,55.0,30.08,NNE,22,0.0,2.6,93,0.00,,,0.00,Rainwise IP-100,2013-05-10 13:54:00,
2013-05-10 06:59:00,57.4,55.0,30.09,NNE,22,1.2,2.1,92,0.00,,,0.00,Rainwise IP-100,2013-05-10 13:59:00,
2013-05-10 07:04:00,57.9,56.0,30.09,NNE,22,0.0,1.6,91,0.00,,,0.00,Rainwise IP-100,2013-05-10 14:04:00,
2013-05-10 07:09:00,58.3,55.0,30.08,ESE,112,2.1,3.5,90,0.00,,,0.00,Rainwise IP-100,2013-05-10 14:09:00,
2013-05-10 07:14:00,58.6,56.0,30.09,ESE,112,0.0,4.2,89,0.00,,,0.00,Rainwise IP-100,2013-05-10 14:14:00,
2013-05-10 07:19:00,58.9,56.0,30.08,NNE,22,0.0,1.2,89,0.00,,,0.00,Rainwise IP-100,2013-05-10 14:19:00,
2013-05-10 07:24:00,59.2,55.0,30.09,ESE,112,1.2,4.2,88,0.00,,,0.00,Rainwise IP-100,2013-05-10 14:24:00,
2013-05-10 07:29:00,59.4,56.0,30.09,ESE,112,0.0,2.8,88,0.00,,,0.00,Rainwise IP-100,2013-05-10 14:29:00,
2013-05-10 07:34:00,59.7,55.0,30.09,ESE,112,1.2,2.1,87,0.00,,,0.00,Rainwise IP-100,2013-05-10 14:34:00,
2013-05-10 07:39:00,59.9,56.0,30.08,SE,135,0.0,4.0,87,0.00,,,0.00,Rainwise IP-100,2013-05-10 14:39:00,
2013-05-10 07:44:00,60.2,56.0,30.09,North,360,1.2,4.2,86,0.00,,,0.00,Rainwise IP-100,2013-05-10 14:44:00,
2013-05-10 07:49:00,60.6,56.0,30.08,ESE,112,2.1,4.0,85,0.00,,,0.00,Rainwise IP-100,2013-05-10 14:49:00,
2013-05-10 07:54:00,61.0,56.5,30.08,NNE,22,2.6,2.8,85,0.00,,,0.00,Rainwise IP-100,2013-05-10 14:54:00,
2013-05-10 07:59:00,61.5,56.5,30.08,NNE,22,1.6,2.6,84,0.00,,,0.00,Rainwise IP-100,2013-05-10 14:59:00,
2013-05-10 08:04:00,62.0,56.5,30.08,SSE,157,0.0,4.2,83,0.00,,,0.00,Rainwise IP-100,2013-05-10 15:04:00,
2013-05-10 08:09:00,62.3,57.0,30.08,South,180,0.0,3.0,82,0.00,,,0.00,Rainwise IP-100,2013-05-10 15:09:00,
2013-05-10 08:14:00,62.6,57.0,30.08,SSW,202,3.0,3.0,82,0.00,,,0.00,Rainwise IP-100,2013-05-10 15:14:00,
2013-05-10 08:29:00,63.4,57.0,30.08,WSW,247,0.0,2.1,80,0.00,,,0.00,Rainwise IP-100,2013-05-10 15:29:00,
2013-05-10 08:34:00,64.5,57.5,30.08,NNE,22,0.0,4.0,78,0.00,,,0.00,Rainwise IP-100,2013-05-10 15:34:00,
2013-05-10 08:39:00,65.0,57.5,30.09,SSW,202,2.3,2.3,77,0.00,,,0.00,Rainwise IP-100,2013-05-10 15:39:00,
2013-05-10 08:44:00,65.0,57.5,30.08,WNW,292,5.6,5.6,77,0.00,,,0.00,Rainwise IP-100,2013-05-10 15:44:00,
2013-05-10 08:49:00,64.8,57.0,30.08,SSW,202,3.3,5.6,76,0.00,,,0.00,Rainwise IP-100,2013-05-10 15:49:00,
2013-05-10 08:54:00,64.6,56.5,30.08,SSW,202,2.3,5.4,76,0.00,,,0.00,Rainwise IP-100,2013-05-10 15:54:00,
2013-05-10 08:59:00,64.7,56.5,30.08,WNW,292,0.0,4.2,76,0.00,,,0.00,Rainwise IP-100,2013-05-10 15:59:00,
2013-05-10 09:04:00,65.2,57.0,30.09,SSW,202,2.1,4.0,76,0.00,,,0.00,Rainwise IP-100,2013-05-10 16:04:00,
2013-05-10 09:09:00,65.4,57.0,30.09,South,180,2.6,4.7,75,0.00,,,0.00,Rainwise IP-100,2013-05-10 16:09:00,
2013-05-10 09:14:00,65.2,57.0,30.08,SSW,202,5.8,6.8,75,0.00,,,0.00,Rainwise IP-100,2013-05-10 16:14:00,
2013-05-10 09:19:00,65.1,57.0,30.08,South,180,0.0,5.8,75,0.00,,,0.00,Rainwise IP-100,2013-05-10 16:19:00,
2013-05-10 09:24:00,65.3,57.0,30.09,South,180,1.2,5.4,75,0.00,,,0.00,Rainwise IP-100,2013-05-10 16:24:00,
2013-05-10 09:29:00,65.3,57.0,30.09,SSW,202,4.0,6.5,75,0.00,,,0.00,Rainwise IP-100,2013-05-10 16:29:00,
2013-05-10 09:34:00,65.4,57.0,30.09,South,180,3.3,5.8,75,0.00,,,0.00,Rainwise IP-100,2013-05-10 16:34:00,
2013-05-10 09:39:00,65.6,57.0,30.09,SSW,202,0.0,7.9,75,0.00,,,0.00,Rainwise IP-100,2013-05-10 16:39:00,
2013-05-10 09:44:00,65.4,57.0,30.09,SSW,202,3.0,6.3,75,0.00,,,0.00,Rainwise IP-100,2013-05-10 16:44:00,
2013-05-10 09:49:00,65.3,57.0,30.09,NW,315,3.3,5.1,75,0.00,,,0.00,Rainwise IP-100,2013-05-10 16:49:00,
2013-05-10 09:54:00,65.3,57.0,30.09,SSW,202,5.1,7.9,75,0.00,,,0.00,Rainwise IP-100,2013-05-10 16:54:00,
2013-05-10 09:59:00,65.4,57.0,30.09,SSW,202,0.0,7.5,75,0.00,,,0.00,Rainwise IP-100,2013-05-10 16:59:00,
2013-05-10 10:04:00,65.8,57.5,30.09,WSW,247,2.3,5.8,75,0.00,,,0.00,Rainwise IP-100,2013-05-10 17:04:00,
2013-05-10 10:09:00,65.9,57.5,30.09,SSW,202,7.2,10.0,75,0.00,,,0.00,Rainwise IP-100,2013-05-10 17:09:00,
2013-05-10 10:14:00,65.5,57.0,30.09,South,180,3.5,11.4,75,0.00,,,0.00,Rainwise IP-100,2013-05-10 17:14:00,
2013-05-10 10:19:00,65.5,57.5,30.09,SSE,157,2.1,6.8,76,0.00,,,0.00,Rainwise IP-100,2013-05-10 17:19:00,
2013-05-10 10:24:00,65.9,57.5,30.08,South,180,2.8,4.9,75,0.00,,,0.00,Rainwise IP-100,2013-05-10 17:24:00,
2013-05-10 10:29:00,66.4,57.5,30.09,SSE,157,3.3,6.1,74,0.00,,,0.00,Rainwise IP-100,2013-05-10 17:29:00,
2013-05-10 10:34:00,66.7,58.0,30.09,SSW,202,5.4,7.5,74,0.00,,,0.00,Rainwise IP-100,2013-05-10 17:34:00,
2013-05-10 10:39:00,66.5,58.0,30.09,NNW,337,6.1,9.8,74,0.00,,,0.00,Rainwise IP-100,2013-05-10 17:39:00,
2013-05-10 10:44:00,66.6,58.0,30.09,SSW,202,7.2,7.2,74,0.00,,,0.00,Rainwise IP-100,2013-05-10 17:44:00,
2013-05-10 10:49:00,66.7,58.0,30.10,SSW,202,2.3,9.8,74,0.00,,,0.00,Rainwise IP-100,2013-05-10 17:49:00,
2013-05-10 10:54:00,66.6,58.0,30.10,SSW,202,4.0,10.5,74,0.00,,,0.00,Rainwise IP-100,2013-05-10 17:54:00,
2013-05-10 10:59:00,66.9,59.0,30.10,SSW,202,4.7,9.1,74,0.00,,,0.00,Rainwise IP-100,2013-05-10 17:59:00,
2013-05-10 11:04:00,67.2,58.0,30.10,SSW,202,3.0,11.2,73,0.00,,,0.00,Rainwise IP-100,2013-05-10 18:04:00,
2013-05-10 11:09:00,67.4,59.0,30.10,SSW,202,2.6,8.4,73,0.00,,,0.00,Rainwise IP-100,2013-05-10 18:09:00,
2013-05-10 11:14:00,67.8,59.0,30.10,SSW,202,3.0,7.9,72,0.00,,,0.00,Rainwise IP-100,2013-05-10 18:14:00,
2013-05-10 11:19:00,67.9,59.0,30.10,SSW,202,1.4,11.4,72,0.00,,,0.00,Rainwise IP-100,2013-05-10 18:19:00,
2013-05-10 11:24:00,67.9,59.0,30.09,SSW,202,5.6,11.4,72,0.00,,,0.00,Rainwise IP-100,2013-05-10 18:24:00,
2013-05-10 11:29:00,68.0,59.0,30.10,SSW,202,5.8,12.1,72,0.00,,,0.00,Rainwise IP-100,2013-05-10 18:29:00,
2013-05-10 11:34:00,67.7,58.0,30.09,South,180,4.7,10.5,72,0.00,,,0.00,Rainwise IP-100,2013-05-10 18:34:00,
2013-05-10 11:39:00,67.8,59.0,30.09,SSW,202,5.6,8.2,72,0.00,,,0.00,Rainwise IP-100,2013-05-10 18:39:00,
2013-05-10 11:44:00,68.5,59.0,30.09,SSW,202,6.3,6.3,71,0.00,,,0.00,Rainwise IP-100,2013-05-10 18:44:00,
2013-05-10 11:49:00,68.6,58.0,30.09,SSE,157,1.9,8.6,70,0.00,,,0.00,Rainwise IP-100,2013-05-10 18:49:00,
2013-05-10 11:54:00,68.5,58.0,30.08,NNE,22,0.0,9.1,70,0.00,,,0.00,Rainwise IP-100,2013-05-10 18:54:00,
2013-05-10 11:59:00,68.7,58.0,30.08,SSW,202,3.0,8.4,70,0.00,,,0.00,Rainwise IP-100,2013-05-10 18:59:00,
2013-05-10 12:04:00,68.8,59.0,30.08,SSW,202,7.5,11.0,70,0.00,,,0.00,Rainwise IP-100,2013-05-10 19:04:00,
2013-05-10 12:09:00,68.6,58.0,30.08,SSW,202,6.1,13.5,70,0.00,,,0.00,Rainwise IP-100,2013-05-10 19:09:00,
2013-05-10 12:14:00,68.2,57.5,30.08,WNW,292,5.1,9.1,70,0.00,,,0.00,Rainwise IP-100,2013-05-10 19:14:00,
2013-05-10 12:19:00,67.9,58.0,30.08,SSW,202,1.2,9.1,71,0.00,,,0.00,Rainwise IP-100,2013-05-10 19:19:00,
2013-05-10 12:24:00,68.2,58.0,30.08,SSE,157,3.5,10.0,71,0.00,,,0.00,Rainwise IP-100,2013-05-10 19:24:00,
2013-05-10 12:29:00,68.3,58.0,30.07,SSW,202,5.6,11.2,70,0.00,,,0.00,Rainwise IP-100,2013-05-10 19:29:00,
2013-05-10 12:34:00,68.1,58.0,30.08,South,180,3.5,10.5,71,0.00,,,0.00,Rainwise IP-100,2013-05-10 19:34:00,
2013-05-10 12:39:00,68.1,58.0,30.08,SSW,202,7.2,9.6,71,0.00,,,0.00,Rainwise IP-100,2013-05-10 19:39:00,
2013-05-10 12:44:00,68.1,58.0,30.07,South,180,7.0,8.4,71,0.00,,,0.00,Rainwise IP-100,2013-05-10 19:44:00,
2013-05-10 12:49:00,68.2,58.0,30.07,South,180,5.8,11.0,71,0.00,,,0.00,Rainwise IP-100,2013-05-10 19:49:00,
2013-05-10 12:54:00,68.5,59.0,30.07,SSW,202,6.1,8.4,71,0.00,,,0.00,Rainwise IP-100,2013-05-10 19:54:00,
2013-05-10 12:59:00,68.7,58.0,30.07,South,180,5.1,10.5,70,0.00,,,0.00,Rainwise IP-100,2013-05-10 19:59:00,
2013-05-10 13:04:00,68.5,58.0,30.07,SSW,202,2.8,12.1,70,0.00,,,0.00,Rainwise IP-100,2013-05-10 20:04:00,
2013-05-10 13:09:00,68.4,58.0,30.06,South,180,3.7,8.2,70,0.00,,,0.00,Rainwise IP-100,2013-05-10 20:09:00,
2013-05-10 13:14:00,68.9,58.0,30.06,SSW,202,4.7,9.8,69,0.00,,,0.00,Rainwise IP-100,2013-05-10 20:14:00,
2013-05-10 13:19:00,68.8,58.0,30.06,SW,225,2.3,9.3,69,0.00,,,0.00,Rainwise IP-100,2013-05-10 20:19:00,
2013-05-10 13:24:00,68.8,58.0,30.06,SSW,202,6.3,10.0,69,0.00,,,0.00,Rainwise IP-100,2013-05-10 20:24:00,
2013-05-10 13:29:00,69.3,58.0,30.06,SSW,202,4.4,7.9,68,0.00,,,0.00,Rainwise IP-100,2013-05-10 20:29:00,
2013-05-10 13:34:00,69.6,58.0,30.06,SSW,202,2.1,11.2,67,0.00,,,0.00,Rainwise IP-100,2013-05-10 20:34:00,
2013-05-10 13:39:00,69.9,59.0,30.06,SSW,202,3.5,10.3,67,0.00,,,0.00,Rainwise IP-100,2013-05-10 20:39:00,
2013-05-10 13:44:00,70.1,59.0,30.05,WNW,292,2.1,8.9,67,0.00,,,0.00,Rainwise IP-100,2013-05-10 20:44:00,
2013-05-10 13:49:00,70.2,59.0,30.06,SE,135,1.9,11.7,67,0.00,,,0.00,Rainwise IP-100,2013-05-10 20:49:00,
2013-05-10 13:54:00,70.5,59.0,30.05,WNW,292,0.0,7.0,67,0.00,,,0.00,Rainwise IP-100,2013-05-10 20:54:00,
2013-05-10 13:59:00,70.5,59.0,30.05,SSW,202,4.9,9.1,66,0.00,,,0.00,Rainwise IP-100,2013-05-10 20:59:00,
2013-05-10 14:04:00,70.2,58.0,30.05,SSE,157,5.4,11.0,66,0.00,,,0.00,Rainwise IP-100,2013-05-10 21:04:00,
2013-05-10 14:09:00,70.3,59.0,30.04,SSW,202,6.1,6.8,67,0.00,,,0.00,Rainwise IP-100,2013-05-10 21:09:00,
2013-05-10 14:14:00,70.5,59.0,30.05,WNW,292,1.9,10.7,67,0.00,,,0.00,Rainwise IP-100,2013-05-10 21:14:00,
2013-05-10 14:19:00,70.2,59.0,30.04,SSW,202,6.5,8.9,67,0.00,,,0.00,Rainwise IP-100,2013-05-10 21:19:00,
2013-05-10 14:24:00,69.7,58.0,30.04,SSW,202,0.0,10.0,67,0.00,,,0.00,Rainwise IP-100,2013-05-10 21:24:00,
2013-05-10 14:29:00,69.5,59.0,30.04,SSW,202,3.3,9.3,68,0.00,,,0.00,Rainwise IP-100,2013-05-10 21:29:00,
2013-05-10 14:34:00,69.7,59.0,30.04,South,180,4.9,8.4,68,0.00,,,0.00,Rainwise IP-100,2013-05-10 21:34:00,
2013-05-10 14:39:00,69.7,59.0,30.04,SSW,202,9.1,10.7,68,0.00,,,0.00,Rainwise IP-100,2013-05-10 21:39:00,
2013-05-10 14:44:00,69.6,59.0,30.04,South,180,3.5,9.1,68,0.00,,,0.00,Rainwise IP-100,2013-05-10 21:44:00,
2013-05-10 14:49:00,69.3,58.0,30.04,South,180,5.1,9.8,68,0.00,,,0.00,Rainwise IP-100,2013-05-10 21:49:00,
2013-05-10 14:54:00,69.5,59.0,30.04,South,180,3.3,11.9,68,0.00,,,0.00,Rainwise IP-100,2013-05-10 21:54:00,
2013-05-10 14:58:00,69.5,59.0,30.04,SSW,202,6.8,11.9,68,0.00,,,0.00,Rainwise IP-100,2013-05-10 21:58:00,
2013-05-10 15:03:00,69.6,59.0,30.04,SSW,202,7.9,8.6,68,0.00,,,0.00,Rainwise IP-100,2013-05-10 22:03:00,
2013-05-10 15:08:00,70.0,59.0,30.03,SSE,157,1.2,10.3,68,0.00,,,0.00,Rainwise IP-100,2013-05-10 22:08:00,
2013-05-10 15:13:00,70.1,59.0,30.03,SSW,202,4.0,10.3,68,0.00,,,0.00,Rainwise IP-100,2013-05-10 22:13:00,
2013-05-10 15:18:00,70.3,59.0,30.03,South,180,4.4,10.7,67,0.00,,,0.00,Rainwise IP-100,2013-05-10 22:18:00,
2013-05-10 15:23:00,70.3,59.0,30.03,WSW,247,7.5,12.1,67,0.00,,,0.00,Rainwise IP-100,2013-05-10 22:23:00,
2013-05-10 15:28:00,69.7,58.0,30.03,SSW,202,11.0,11.9,67,0.00,,,0.00,Rainwise IP-100,2013-05-10 22:28:00,
2013-05-10 15:33:00,69.6,58.0,30.03,WSW,247,4.7,12.8,67,0.00,,,0.00,Rainwise IP-100,2013-05-10 22:33:00,
2013-05-10 15:38:00,69.9,59.0,30.03,SSW,202,6.1,8.9,67,0.00,,,0.00,Rainwise IP-100,2013-05-10 22:38:00,
2013-05-10 15:43:00,69.7,57.5,30.03,SSW,202,6.3,9.3,66,0.00,,,0.00,Rainwise IP-100,2013-05-10 22:43:00,
2013-05-10 15:48:00,69.4,57.5,30.03,SSW,202,5.8,10.7,67,0.00,,,0.00,Rainwise IP-100,2013-05-10 22:48:00,
2013-05-10 15:53:00,69.4,57.5,30.03,South,180,4.0,9.3,67,0.00,,,0.00,Rainwise IP-100,2013-05-10 22:53:00,
2013-05-10 15:58:00,69.6,58.0,30.03,SSW,202,7.5,9.1,67,0.00,,,0.00,Rainwise IP-100,2013-05-10 22:58:00,
2013-05-10 16:03:00,69.8,58.0,30.03,South,180,6.3,9.1,67,0.00,,,0.00,Rainwise IP-100,2013-05-10 23:03:00,
2013-05-10 16:08:00,69.8,58.0,30.03,SSW,202,6.3,9.3,67,0.00,,,0.00,Rainwise IP-100,2013-05-10 23:08:00,
2013-05-10 16:13:00,69.9,59.0,30.03,SSW,202,4.2,8.6,67,0.00,,,0.00,Rainwise IP-100,2013-05-10 23:13:00,
2013-05-10 16:18:00,70.1,58.0,30.03,SSW,202,4.4,7.7,66,0.00,,,0.00,Rainwise IP-100,2013-05-10 23:18:00,
2013-05-10 16:23:00,70.1,58.0,30.03,SSW,202,5.4,9.6,66,0.00,,,0.00,Rainwise IP-100,2013-05-10 23:23:00,
2013-05-10 16:28:00,70.2,58.0,30.03,SSE,157,3.5,7.5,66,0.00,,,0.00,Rainwise IP-100,2013-05-10 23:28:00,
2013-05-10 16:33:00,70.4,59.0,30.03,South,180,5.6,8.2,66,0.00,,,0.00,Rainwise IP-100,2013-05-10 23:33:00,
2013-05-10 16:38:00,70.4,59.0,30.02,SSW,202,5.4,7.7,66,0.00,,,0.00,Rainwise IP-100,2013-05-10 23:38:00,
2013-05-10 16:41:00,70.4,59.0,30.03,South,180,4.7,8.4,66,0.00,,,0.00,Rainwise IP-100,2013-05-10 23:41:00,
2013-05-10 16:46:00,70.4,59.0,30.03,SSW,202,3.5,8.2,66,0.00,,,0.00,Rainwise IP-100,2013-05-10 23:46:00,
2013-05-10 16:51:00,70.3,59.0,30.03,SSE,157,1.9,10.0,66,0.00,,,0.00,Rainwise IP-100,2013-05-10 23:51:00,
2013-05-10 16:56:00,70.1,59.0,30.03,SW,225,4.4,9.3,67,0.00,,,0.00,Rainwise IP-100,2013-05-10 23:56:00,
2013-05-10 17:01:00,70.0,59.0,30.03,SSW,202,5.8,8.2,67,0.00,,,0.00,Rainwise IP-100,2013-05-11 00:01:00,
2013-05-10 17:06:00,69.7,58.0,30.03,WSW,247,4.9,7.9,67,0.00,,,0.00,Rainwise IP-100,2013-05-11 00:06:00,
2013-05-10 17:11:00,69.3,58.0,30.03,SSW,202,7.9,11.0,68,0.00,,,0.00,Rainwise IP-100,2013-05-11 00:11:00,
2013-05-10 17:16:00,69.4,58.0,30.02,SSW,202,5.6,9.8,68,0.00,,,0.00,Rainwise IP-100,2013-05-11 00:16:00,
2013-05-10 17:21:00,69.5,59.0,30.02,SSW,202,4.9,10.3,68,0.00,,,0.00,Rainwise IP-100,2013-05-11 00:21:00,
2013-05-10 17:26:00,69.6,58.0,30.02,SSW,202,6.5,8.4,67,0.00,,,0.00,Rainwise IP-100,2013-05-11 00:26:00,
2013-05-10 17:31:00,69.8,57.5,30.02,SSW,202,4.4,8.6,66,0.00,,,0.00,Rainwise IP-100,2013-05-11 00:31:00,
2013-05-10 17:36:00,69.8,57.5,30.02,South,180,5.8,8.2,66,0.00,,,0.00,Rainwise IP-100,2013-05-11 00:36:00,
2013-05-10 17:41:00,69.9,58.0,30.02,WNW,292,0.0,7.9,66,0.00,,,0.00,Rainwise IP-100,2013-05-11 00:41:00,
2013-05-10 17:46:00,70.3,57.5,30.02,SSW,202,4.4,6.5,64,0.00,,,0.00,Rainwise IP-100,2013-05-11 00:46:00,
2013-05-10 17:51:00,70.3,57.0,30.02,South,180,5.8,8.6,63,0.00,,,0.00,Rainwise IP-100,2013-05-11 00:51:00,
2013-05-10 17:56:00,69.9,57.0,30.02,SSW,202,3.3,7.2,64,0.00,,,0.00,Rainwise IP-100,2013-05-11 00:56:00,
2013-05-10 18:01:00,69.4,56.5,30.03,SSW,202,4.0,7.9,64,0.00,,,0.00,Rainwise IP-100,2013-05-11 01:01:00,
2013-05-10 18:06:00,68.8,56.5,30.02,SSW,202,5.1,7.5,65,0.00,,,0.00,Rainwise IP-100,2013-05-11 01:06:00,
2013-05-10 18:11:00,68.4,57.0,30.02,SSW,202,4.7,7.7,67,0.00,,,0.00,Rainwise IP-100,2013-05-11 01:11:00,
2013-05-10 18:16:00,68.1,57.5,30.02,SW,225,0.0,8.2,69,0.00,,,0.00,Rainwise IP-100,2013-05-11 01:16:00,
2013-05-10 18:21:00,68.2,57.5,30.02,SSW,202,1.4,4.9,69,0.00,,,0.00,Rainwise IP-100,2013-05-11 01:21:00,
2013-05-10 18:26:00,68.7,57.5,30.02,SSW,202,1.6,4.4,69,0.00,,,0.00,Rainwise IP-100,2013-05-11 01:26:00,
2013-05-10 18:31:00,68.6,57.5,30.02,SSW,202,4.4,5.1,69,0.00,,,0.00,Rainwise IP-100,2013-05-11 01:31:00,
2013-05-10 18:32:00,68.6,57.5,30.02,SSW,202,1.9,5.1,69,0.00,,,0.00,Rainwise IP-100,2013-05-11 01:32:00,
2013-05-10 18:37:00,68.1,57.5,30.03,SW,225,4.7,5.4,69,0.00,,,0.00,Rainwise IP-100,2013-05-11 01:37:00,
2013-05-10 18:42:00,67.7,57.5,30.03,SSW,202,3.5,5.8,71,0.00,,,0.00,Rainwise IP-100,2013-05-11 01:42:00,
2013-05-10 18:47:00,67.3,59.0,30.03,SSE,157,1.9,4.0,73,0.00,,,0.00,Rainwise IP-100,2013-05-11 01:47:00,
2013-05-10 18:52:00,67.1,59.0,30.03,SSW,202,1.4,4.0,74,0.00,,,0.00,Rainwise IP-100,2013-05-11 01:52:00,
2013-05-10 18:57:00,66.7,59.0,30.03,SSW,202,1.2,4.7,75,0.00,,,0.00,Rainwise IP-100,2013-05-11 01:57:00,
2013-05-10 19:02:00,66.4,58.0,30.03,ESE,112,0.0,3.3,75,0.00,,,0.00,Rainwise IP-100,2013-05-11 02:02:00,
2013-05-10 19:07:00,66.0,58.0,30.03,ESE,112,0.0,1.4,76,0.00,,,0.00,Rainwise IP-100,2013-05-11 02:07:00,
2013-05-10 19:12:00,65.6,58.0,30.04,ESE,112,0.0,1.4,77,0.00,,,0.00,Rainwise IP-100,2013-05-11 02:12:00,
2013-05-10 19:17:00,65.2,57.5,30.04,SSE,157,1.9,2.1,78,0.00,,,0.00,Rainwise IP-100,2013-05-11 02:17:00,
2013-05-10 19:22:00,64.9,58.0,30.04,SSE,157,3.3,3.3,79,0.00,,,0.00,Rainwise IP-100,2013-05-11 02:22:00,
2013-05-10 19:27:00,64.6,57.5,30.04,SSW,202,2.8,4.7,79,0.00,,,0.00,Rainwise IP-100,2013-05-11 02:27:00,
2013-05-10 19:32:00,64.0,58.0,30.05,SSW,202,1.2,5.8,81,0.00,,,0.00,Rainwise IP-100,2013-05-11 02:32:00,
2013-05-10 19:37:00,63.5,57.5,30.05,SSW,202,3.0,4.4,82,0.00,,,0.00,Rainwise IP-100,2013-05-11 02:37:00,
2013-05-10 19:42:00,63.2,58.0,30.05,SSW,202,1.9,4.0,84,0.00,,,0.00,Rainwise IP-100,2013-05-11 02:42:00,
2013-05-10 19:47:00,62.8,58.0,30.05,SSW,202,3.0,3.5,84,0.00,,,0.00,Rainwise IP-100,2013-05-11 02:47:00,
2013-05-10 19:52:00,62.6,57.5,30.05,SSW,202,2.8,5.1,85,0.00,,,0.00,Rainwise IP-100,2013-05-11 02:52:00,
2013-05-10 19:57:00,62.5,58.0,30.06,South,180,3.7,4.2,86,0.00,,,0.00,Rainwise IP-100,2013-05-11 02:57:00,
2013-05-10 20:02:00,62.4,58.0,30.06,SSW,202,1.6,5.6,86,0.00,,,0.00,Rainwise IP-100,2013-05-11 03:02:00,
2013-05-10 20:07:00,62.3,59.0,30.06,SSW,202,1.9,4.2,87,0.00,,,0.00,Rainwise IP-100,2013-05-11 03:07:00,
2013-05-10 20:12:00,62.2,58.0,30.07,SSW,202,1.9,3.7,88,0.00,,,0.00,Rainwise IP-100,2013-05-11 03:12:00,
2013-05-10 20:17:00,62.1,58.0,30.07,South,180,1.6,4.4,88,0.00,,,0.00,Rainwise IP-100,2013-05-11 03:17:00,
2013-05-10 20:22:00,62.0,58.0,30.07,SSW,202,1.4,3.0,88,0.00,,,0.00,Rainwise IP-100,2013-05-11 03:22:00,
2013-05-10 20:27:00,61.8,58.0,30.07,SSW,202,2.6,3.3,88,0.00,,,0.00,Rainwise IP-100,2013-05-11 03:27:00,
2013-05-10 20:32:00,61.7,58.0,30.08,SSW,202,1.4,3.0,89,0.00,,,0.00,Rainwise IP-100,2013-05-11 03:32:00,
2013-05-10 20:37:00,61.7,58.0,30.08,SSW,202,1.4,2.6,89,0.00,,,0.00,Rainwise IP-100,2013-05-11 03:37:00,
2013-05-10 20:42:00,61.6,59.0,30.08,SSW,202,2.3,3.3,90,0.00,,,0.00,Rainwise IP-100,2013-05-11 03:42:00,
2013-05-10 20:47:00,61.6,59.0,30.08,SSW,202,1.2,3.5,90,0.00,,,0.00,Rainwise IP-100,2013-05-11 03:47:00,
2013-05-10 20:52:00,61.5,59.0,30.08,SSW,202,1.2,2.8,90,0.00,,,0.00,Rainwise IP-100,2013-05-11 03:52:00,
2013-05-10 20:57:00,61.3,59.0,30.08,SSW,202,1.2,2.6,90,0.00,,,0.00,Rainwise IP-100,2013-05-11 03:57:00,
2013-05-10 21:01:00,61.3,59.0,30.08,SSW,202,2.1,2.8,91,0.00,,,0.00,Rainwise IP-100,2013-05-11 04:01:00,
2013-05-10 21:06:00,61.2,58.0,30.08,SSW,202,0.0,2.3,91,0.00,,,0.00,Rainwise IP-100,2013-05-11 04:06:00,
2013-05-10 21:11:00,61.1,58.0,30.08,SSW,202,0.0,1.4,91,0.00,,,0.00,Rainwise IP-100,2013-05-11 04:11:00,
2013-05-10 21:16:00,61.0,58.0,30.08,SSW,202,0.0,2.1,91,0.00,,,0.00,Rainwise IP-100,2013-05-11 04:16:00,
2013-05-10 21:21:00,60.9,58.0,30.09,SSW,202,0.0,0.0,91,0.00,,,0.00,Rainwise IP-100,2013-05-11 04:21:00,
2013-05-10 21:26:00,60.7,57.5,30.08,SSW,202,0.0,2.6,91,0.00,,,0.00,Rainwise IP-100,2013-05-11 04:26:00,
2013-05-10 21:31:00,60.6,57.5,30.09,SSW,202,1.6,2.3,91,0.00,,,0.00,Rainwise IP-100,2013-05-11 04:31:00,
2013-05-10 21:36:00,60.5,58.0,30.09,SSW,202,1.6,2.3,92,0.00,,,0.00,Rainwise IP-100,2013-05-11 04:36:00,
2013-05-10 21:41:00,60.5,58.0,30.09,SSW,202,1.2,1.9,92,0.00,,,0.00,Rainwise IP-100,2013-05-11 04:41:00,
2013-05-10 21:46:00,60.5,58.0,30.09,SSW,202,0.0,2.3,92,0.00,,,0.00,Rainwise IP-100,2013-05-11 04:46:00,
2013-05-10 21:51:00,60.3,58.0,30.09,SSW,202,0.0,0.0,92,0.00,,,0.00,Rainwise IP-100,2013-05-11 04:51:00,
2013-05-10 21:56:00,60.1,57.5,30.09,SSW,202,0.0,1.4,92,0.00,,,0.00,Rainwise IP-100,2013-05-11 04:56:00,
2013-05-10 22:01:00,60.0,57.5,30.09,SSW,202,0.0,0.0,92,0.00,,,0.00,Rainwise IP-100,2013-05-11 05:01:00,
2013-05-10 22:06:00,59.9,57.5,30.09,SSW,202,0.0,1.2,92,0.00,,,0.00,Rainwise IP-100,2013-05-11 05:06:00,
2013-05-10 22:11:00,59.8,57.5,30.09,SSW,202,0.0,0.0,93,0.00,,,0.00,Rainwise IP-100,2013-05-11 05:11:00,
2013-05-10 22:16:00,59.6,57.0,30.09,SSW,202,0.0,0.0,93,0.00,,,0.00,Rainwise IP-100,2013-05-11 05:16:00,
2013-05-10 22:21:00,59.4,57.0,30.09,SSW,202,0.0,0.0,93,0.00,,,0.00,Rainwise IP-100,2013-05-11 05:21:00,
2013-05-10 22:26:00,59.3,57.0,30.09,SSW,202,0.0,0.0,93,0.00,,,0.00,Rainwise IP-100,2013-05-11 05:26:00,
2013-05-10 22:31:00,59.1,57.0,30.09,SSW,202,0.0,0.0,93,0.00,,,0.00,Rainwise IP-100,2013-05-11 05:31:00,
2013-05-10 22:36:00,59.0,57.0,30.09,SSW,202,0.0,0.0,93,0.00,,,0.00,Rainwise IP-100,2013-05-11 05:36:00,
2013-05-10 22:41:00,59.0,57.0,30.09,SSW,202,0.0,0.0,93,0.00,,,0.00,Rainwise IP-100,2013-05-11 05:41:00,
2013-05-10 22:46:00,59.2,57.0,30.09,SSW,202,0.0,0.0,94,0.00,,,0.00,Rainwise IP-100,2013-05-11 05:46:00,
2013-05-10 22:51:00,59.2,57.0,30.09,SSW,202,0.0,0.0,94,0.00,,,0.00,Rainwise IP-100,2013-05-11 05:51:00,
2013-05-10 22:56:00,59.3,57.5,30.09,SSW,202,0.0,0.0,94,0.00,,,0.00,Rainwise IP-100,2013-05-11 05:56:00,
2013-05-10 23:01:00,59.3,57.5,30.09,SSW,202,0.0,0.0,94,0.00,,,0.00,Rainwise IP-100,2013-05-11 06:01:00,
2013-05-10 23:06:00,59.3,57.5,30.09,SSW,202,0.0,0.0,94,0.00,,,0.00,Rainwise IP-100,2013-05-11 06:06:00,
2013-05-10 23:11:00,59.4,57.5,30.10,SSW,202,0.0,0.0,94,0.00,,,0.00,Rainwise IP-100,2013-05-11 06:11:00,
2013-05-10 23:16:00,59.5,57.5,30.10,SSW,202,0.0,0.0,94,0.00,,,0.00,Rainwise IP-100,2013-05-11 06:16:00,
2013-05-10 23:21:00,59.5,57.5,30.09,SSW,202,0.0,0.0,94,0.00,,,0.00,Rainwise IP-100,2013-05-11 06:21:00,
2013-05-10 23:26:00,59.5,57.5,30.09,SSW,202,0.0,0.0,94,0.00,,,0.00,Rainwise IP-100,2013-05-11 06:26:00,
2013-05-10 23:31:00,59.4,57.5,30.10,SSW,202,0.0,0.0,94,0.00,,,0.00,Rainwise IP-100,2013-05-11 06:31:00,
2013-05-10 23:36:00,59.3,57.5,30.09,SSW,202,0.0,0.0,94,0.00,,,0.00,Rainwise IP-100,2013-05-11 06:36:00,
2013-05-10 23:41:00,59.3,57.5,30.10,SSW,202,0.0,0.0,94,0.00,,,0.00,Rainwise IP-100,2013-05-11 06:41:00,
2013-05-10 23:46:00,59.3,57.5,30.10,SSW,202,0.0,0.0,95,0.00,,,0.00,Rainwise IP-100,2013-05-11 06:46:00,
2013-05-10 23:51:00,59.3,57.5,30.10,SSW,202,0.0,0.0,95,0.00,,,0.00,Rainwise IP-100,2013-05-11 06:51:00,
2013-05-10 23:56:00,59.1,57.5,30.10,SSW,202,0.0,0.0,95,0.00,,,0.00,Rainwise IP-100,2013-05-11 06:56:00,